Home   Weather   Chibougamau   Past weeks

Flag for Canada Past Weather in Chibougamau, Quebec, Canada — Yesterday and Last 2 Weeks

Now
34 °F

Mostly cloudy.


Feels Like: 29 °F
Forecast: 27 / 37 °F
Wind: 6 mph from Northwest

Location: Chibougamau-Chapais

Current Time: Apr 29, 2017 at 3:55:26 am

Latest Report: Apr 29, 2017 at 3:00 am


Visibility: 9 mi

Pressure: 29.77 "Hg

Humidity: 87%

Dew Point: 30 °F

Location of ChibougamauLocation

Past Weather in Chibougamau — Graph

°F

Chibougamau Temperature Yesterday

Maximum temperature yesterday: 48 °F (at 10:06 am)
Minimum temperature yesterday: 41 °F (at 4:40 am)
Average temperature yesterday: 44 °F

High & Low Weather Summary for the Past Weeks

 TemperatureHumidityPressure
High55 °F (Apr 27, 3:32 pm)100% (Apr 15, 10:20 pm)30.51 "Hg (Apr 15, 10:20 pm)
Low5 °F (Apr 18, 5:00 am)26% (Apr 18, 12:00 pm)29.65 "Hg (Apr 28, 5:37 am)
Average33 °F77%30.03 "Hg
* Reported Apr 14 2:00 am — Apr 29 2:38 am, Chibougamau, Weather by CustomWeather, © 2017

Note: Actual official high and low records may vary slightly from our data, if they occured in-between our weather recording intervals... More about our weather records

Advertising

Chibougamau Weather History for the Previous 24 Hours

Scroll right to see more
 ConditionsComfort  
Time TempWeatherWind HumidityBarometerVisibility
2:38 am
Sat, Apr 29
36 °FLight rain. Mostly cloudy.12 mph81%29.78 "Hg9 mi
2:02 am37 °FLight rain. Mostly cloudy.14 mph87%29.78 "Hg9 mi
1:39 am39 °FMostly cloudy.12 mph81%29.77 "Hg9 mi
1:00 am43 °FOvercast.15 mph61%29.76 "Hg9 mi
12:00 am43 °FOvercast.12 mph66%29.77 "Hg9 mi
11:00 pm
Fri, Apr 28
43 °FOvercast.14 mph66%29.77 "Hg9 mi
10:00 pm45 °FOvercast.14 mph61%29.79 "Hg9 mi
9:00 pm45 °FOvercast.14 mph61%29.81 "Hg9 mi
8:00 pm45 °FOvercast.13 mph61%29.79 "Hg9 mi
7:00 pm43 °FOvercast.5 mph71%29.78 "Hg9 mi
6:00 pm45 °FOvercast.5 mph61%29.79 "Hg9 mi
5:00 pm46 °FOvercast.8 mph57%29.80 "Hg9 mi
4:00 pm46 °FMostly cloudy.14 mph62%29.78 "Hg9 mi
3:00 pm46 °FCloudy.15 mph66%29.77 "Hg9 mi
2:36 pm46 °FLight rain. Mostly cloudy.16 mph66%29.78 "Hg9 mi
2:00 pm46 °FMostly cloudy.20 mph62%29.77 "Hg9 mi
1:06 pm46 °FCloudy.14 mph71%29.76 "Hg9 mi
12:00 pm46 °FOvercast.16 mph76%29.74 "Hg9 mi
11:37 am48 °FMostly cloudy.17 mph76%29.74 "Hg9 mi
11:00 am48 °FOvercast.16 mph76%29.73 "Hg9 mi
10:37 am46 °FCloudy.17 mph87%29.74 "Hg9 mi
10:13 am48 °FCloudy.10 mph100%29.71 "Hg9 mi
10:06 am48 °FMore clouds than sun.13 mph100%29.71 "Hg9 mi
9:42 am46 °FFog.10 mph100%29.70 "Hg1 mi
9:18 am43 °FFog.7 mph100%29.70 "Hg1 mi
9:00 am43 °FLight rain. Fog.8 mph100%29.71 "Hg1 mi
8:00 am41 °FLight rain. Fog.8 mph100%29.69 "Hg0 mi
7:28 am41 °FLight rain. Fog.9 mph100%29.68 "Hg1 mi
7:00 am41 °FLight rain. Fog.7 mph100%29.67 "Hg1 mi
6:40 am41 °FFog.10 mph100%29.67 "Hg4 mi
6:17 am41 °FLight rain. Fog.7 mph100%29.65 "Hg2 mi
5:49 am41 °FLight rain. Fog.10 mph100%29.65 "Hg6 mi
5:37 am41 °FFog.9 mph100%29.65 "Hg6 mi
5:20 am41 °FLight rain. Fog.8 mph100%29.65 "Hg6 mi
5:00 am41 °FLight rain. Fog.12 mph100%29.67 "Hg4 mi
4:53 am41 °FLight rain. Fog.10 mph100%29.65 "Hg4 mi
4:40 am41 °FFog.9 mph100%29.66 "Hg5 mi
3:00 am45 °FLow clouds.9 mph93%29.67 "Hg9 mi
Weather by CustomWeather, © 2017

See weather overviewHow to use our weather pages